Theta_e
301 302 302 302 301 301 302 302 302 302 301 301 300 300 300 302 302 303 303 304 304 303 300 296 295 296 296 297 298 300 302 304 304 305 305 305 306 306 306 306 307 309 311 311 311 310 310 310 310 311 312 312 311 312 312 313 315 316 319 320 317 317 316 317 320 318 318 320 318 318 318 317 317 320 333 342 341 344 345 345 346 346 346 346 346 346 345 344
301 301 301 302 301 301 301 301 302 302 302 302 301 301 300 301 301 302 303 304 304 304 303 299 296 295 295 296 297 299 302 303 304 305 305 306 306 305 305 305 306 308 310 311 312 311 311 310 310 310 311 311 311 311 312 313 314 316 320 319 316 317 316 316 317 316 317 318 317 318 318 316 316 318 330 345 349 345 347 348 347 348 348 347 347 346 344 344
302 301 301 301 301 301 301 302 302 301 302 302 302 301 301 301 301 302 303 303 304 304 304 302 299 296 295 296 296 299 302 303 304 305 306 309 309 306 306 305 305 307 309 311 312 311 311 311 311 311 310 310 311 311 312 313 314 316 318 318 316 316 315 315 315 316 317 318 316 316 316 316 316 316 325 345 350 345 348 348 346 348 348 347 346 345 344 344
302 302 301 301 301 301 301 302 301 301 302 301 302 302 302 301 301 302 303 303 303 304 304 303 302 298 294 295 296 299 302 303 304 306 308 310 310 309 307 306 305 306 309 310 312 311 311 311 311 311 311 311 311 312 312 313 315 316 316 318 317 315 315 316 315 317 317 317 316 315 316 315 317 316 321 338 351 351 346 344 346 348 347 346 345 345 345 344
302 302 301 300 301 301 301 301 301 301 301 301 302 302 302 302 302 302 303 303 303 303 303 303 303 299 294 295 295 298 301 303 306 309 309 310 310 310 309 307 305 306 308 310 311 311 310 310 312 312 312 311 311 313 313 313 315 316 315 316 315 314 315 316 316 317 317 317 315 314 316 316 317 317 320 334 348 353 346 344 347 347 348 347 346 346 345 344
302 302 302 300 300 301 301 301 301 301 301 302 302 302 301 302 302 302 302 303 303 303 303 303 303 299 294 295 295 297 300 304 309 310 309 310 310 310 310 308 305 305 308 310 311 311 310 309 311 312 311 311 312 313 313 313 315 316 315 315 315 315 314 316 316 317 317 316 315 315 316 316 317 316 322 335 343 346 345 345 346 346 348 347 346 346 344 344
302 302 302 301 300 301 301 301 301 301 302 302 302 302 302 302 302 302 302 303 303 303 302 303 303 299 294 295 295 297 300 303 308 310 309 310 310 311 310 309 306 305 309 311 311 311 311 309 309 311 310 312 312 312 313 313 314 315 315 314 315 316 315 316 317 316 317 315 315 316 316 317 315 317 332 343 342 344 346 345 347 347 347 346 346 345 344 344
302 302 302 302 300 300 301 301 301 301 302 302 302 302 302 302 301 301 301 302 302 303 302 302 303 299 295 297 299 300 301 303 306 310 308 309 310 311 310 308 305 305 308 310 311 310 311 310 309 310 311 312 312 312 313 314 314 313 314 314 314 315 315 317 317 317 317 315 316 316 315 316 316 326 343 345 343 345 346 346 347 347 346 346 346 344 344 343
302 302 302 302 300 299 300 301 301 301 301 301 301 302 302 302 301 301 300 300 302 302 302 302 302 300 296 299 302 302 303 301 302 305 307 308 309 310 311 309 305 303 306 308 311 310 311 310 308 310 312 312 312 312 313 314 315 313 313 314 313 314 315 316 316 317 316 315 316 315 315 315 320 336 348 344 343 346 345 346 347 346 346 345 345 344 344 343
302 302 302 302 301 300 300 300 300 301 301 301 301 300 301 301 301 301 299 298 301 302 302 302 302 300 297 300 303 303 304 303 303 302 305 308 308 308 310 311 308 305 305 306 310 311 311 311 309 310 312 312 313 313 313 313 314 314 314 314 314 314 314 314 314 315 316 315 316 315 316 316 317 334 349 344 343 345 345 345 346 346 346 345 344 344 344 344
301 301 302 303 302 301 299 299 300 300 301 301 300 299 299 300 300 300 300 299 300 302 302 302 302 301 298 299 301 304 303 304 304 302 305 306 307 307 309 312 311 309 308 307 308 310 311 310 309 309 311 312 312 312 313 313 313 314 314 314 314 313 314 314 314 314 315 315 316 316 316 316 322 337 348 345 343 344 345 344 345 346 345 344 344 343 343 342
300 301 302 302 303 302 300 299 300 300 300 300 299 298 298 298 298 299 300 299 299 301 301 301 302 300 299 299 301 303 302 303 303 302 304 305 306 307 307 309 310 310 310 310 309 309 309 310 309 309 311 311 311 312 313 312 312 313 313 314 314 313 314 314 314 314 313 315 316 316 314 315 331 346 345 344 343 342 344 343 344 344 344 343 343 342 341 340
301 302 303 302 303 303 301 300 300 300 300 299 298 298 298 297 297 297 298 298 298 301 301 301 301 300 300 300 301 300 300 301 301 301 302 303 305 306 307 307 308 309 310 311 311 310 309 309 309 309 311 310 310 312 311 311 311 312 313 313 314 314 314 313 314 314 313 316 315 315 315 314 330 341 342 344 343 341 342 341 342 342 342 342 341 341 340 341
302 302 303 303 303 303 302 301 300 299 299 299 298 298 298 298 298 297 297 298 298 299 300 301 301 300 300 300 299 298 299 298 300 301 301 302 304 307 308 307 308 309 309 310 311 311 309 308 308 309 309 309 310 311 310 310 311 312 313 313 314 314 314 314 313 314 314 315 315 316 314 314 328 336 341 343 341 342 340 338 339 340 341 341 341 341 339 340
302 302 302 302 302 302 302 301 299 298 298 299 299 298 298 298 298 297 297 298 298 298 299 300 300 300 299 299 297 299 300 301 302 302 302 302 304 308 308 307 308 308 308 308 309 310 309 308 308 308 308 309 309 310 311 312 312 312 312 312 313 313 314 314 313 314 314 314 316 314 314 323 335 337 340 341 340 341 339 337 338 338 340 340 340 340 339 338
302 302 302 302 302 302 302 301 299 298 298 299 299 298 298 299 298 298 297 297 298 298 299 299 298 299 300 300 299 302 303 304 304 304 305 303 304 307 308 308 308 308 308 308 309 309 309 308 307 307 307 308 309 309 311 313 313 313 313 313 313 312 312 315 314 312 313 316 315 313 323 341 344 337 338 340 340 339 337 336 337 338 339 339 339 340 339 339
302 302 302 301 301 302 302 302 300 298 299 298 299 299 298 299 299 298 298 298 299 300 299 299 299 300 301 301 301 302 303 304 304 304 306 305 305 306 307 308 307 308 308 308 308 307 308 308 307 307 307 308 309 310 311 312 313 313 312 313 313 312 312 314 315 313 313 315 315 316 334 350 344 337 337 339 338 338 336 336 336 337 338 339 339 339 339 339
302 302 302 301 301 301 301 302 300 298 298 298 298 299 299 299 298 297 298 299 301 301 300 300 300 299 301 300 300 301 302 303 302 302 305 305 305 306 306 306 307 309 308 308 308 307 308 308 307 308 307 308 308 309 312 312 313 312 312 314 313 312 313 313 314 314 313 315 318 325 341 347 340 337 336 336 337 337 335 335 336 336 337 338 339 338 339 339
302 302 302 301 301 301 301 302 301 299 298 299 298 299 299 299 298 299 300 302 302 302 301 301 300 299 299 300 300 300 301 302 302 302 304 306 306 306 306 306 307 308 308 308 308 308 309 309 308 308 308 307 307 308 310 312 313 313 316 317 313 312 313 313 314 314 314 315 317 325 343 345 339 337 335 335 336 335 335 335 336 336 336 337 337 337 338 338
301 301 301 300 301 301 301 301 301 299 299 300 300 300 299 299 300 302 303 302 302 302 301 302 301 300 300 301 300 301 301 301 302 303 304 306 306 307 306 306 307 307 307 308 309 308 309 311 309 308 307 307 307 308 309 311 311 311 315 315 313 313 313 314 314 315 315 314 318 328 345 344 338 338 335 334 334 333 334 334 335 336 336 336 336 337 337 337
300 300 300 300 301 302 301 301 300 299 300 301 301 301 301 300 301 302 302 301 301 301 301 301 302 301 301 302 302 302 302 302 303 304 305 305 306 307 307 307 307 308 307 306 308 309 310 312 310 309 308 308 308 309 309 310 309 310 312 312 313 313 312 315 315 315 313 314 329 337 344 341 337 338 333 332 334 333 334 334 335 335 336 336 336 336 336 336
300 300 300 301 302 302 301 301 300 299 301 302 302 302 302 301 302 302 301 302 302 302 302 301 302 302 301 301 302 302 302 302 303 304 305 305 306 308 308 307 307 307 306 305 307 309 310 311 311 310 309 309 310 310 310 310 309 310 311 311 313 312 314 315 313 323 322 323 339 339 341 340 336 336 332 332 334 333 334 334 334 335 335 336 336 336 336 336
301 301 301 301 301 301 301 301 300 300 301 301 301 302 302 302 302 302 302 302 302 302 302 302 302 302 301 300 301 301 302 302 303 305 305 306 307 308 307 306 307 307 306 306 307 309 310 310 310 310 310 310 310 310 310 310 310 311 311 312 314 312 314 311 314 336 336 332 341 339 339 341 337 336 333 332 334 333 334 334 334 334 334 335 335 336 336 336
302 302 302 301 301 301 301 301 300 300 301 300 301 302 302 302 302 302 302 302 302 302 302 301 302 302 301 300 301 301 302 302 302 304 305 306 307 307 306 306 307 306 306 306 306 308 310 309 309 310 311 310 310 310 311 311 311 311 311 312 313 313 313 313 321 339 341 336 337 337 340 342 339 339 337 334 334 334 333 334 333 334 334 334 335 335 336 335
302 302 302 302 301 301 301 301 300 300 300 301 302 302 301 302 302 302 302 302 302 301 301 301 302 302 301 301 301 301 302 302 302 304 304 305 307 307 306 306 306 307 306 306 305 307 308 309 309 311 312 310 309 309 309 311 311 311 312 311 313 313 312 320 329 336 341 341 338 334 335 341 341 340 339 336 336 335 334 334 333 334 333 334 334 335 335 335
302 302 302 302 302 301 301 301 300 299 301 302 302 302 301 302 302 302 302 301 301 301 301 302 301 302 301 301 301 301 302 303 303 304 304 304 306 306 306 306 306 307 306 306 306 307 307 308 309 311 311 310 310 309 309 310 311 311 313 311 313 313 311 324 332 328 332 337 338 331 325 336 341 340 339 338 338 338 335 334 334 334 334 333 334 335 335 335
303 302 302 302 302 301 301 301 300 300 301 302 302 302 301 301 302 302 301 301 301 302 302 302 301 301 302 302 301 302 303 304 303 304 304 305 305 306 306 305 305 306 305 306 307 308 308 308 309 310 310 310 309 309 309 310 311 312 313 312 313 313 311 320 327 326 330 333 336 333 329 338 341 338 339 338 339 339 337 336 335 333 334 333 334 334 334 335
302 303 302 302 301 301 301 300 299 300 302 301 301 302 301 301 301 301 301 301 301 302 303 302 301 302 303 302 302 302 303 304 305 305 305 305 305 305 307 306 305 305 306 307 308 309 309 308 309 309 310 310 309 310 310 309 311 312 313 313 314 313 312 316 318 319 326 329 333 336 336 339 341 338 339 339 339 341 339 337 335 334 334 333 333 333 334 334
302 302 302 302 302 301 301 300 299 301 302 301 301 301 301 301 301 301 302 302 301 302 305 303 301 303 303 302 302 302 303 304 305 306 306 306 305 306 307 307 306 306 306 307 309 311 309 308 309 309 309 310 309 310 310 309 311 311 313 314 313 313 313 313 314 314 318 320 326 335 335 335 340 341 339 341 341 340 339 337 335 334 334 333 333 333 333 334
301 301 301 302 302 301 301 300 299 301 302 302 301 301 300 301 300 300 301 302 301 301 304 304 303 304 304 303 303 303 303 303 304 305 305 306 306 305 307 307 306 307 306 306 309 310 309 309 309 309 309 310 310 310 309 310 311 311 313 312 311 316 316 313 317 319 318 316 317 330 335 330 334 339 339 340 341 339 338 338 336 335 334 333 333 333 333 334
301 301 301 301 302 302 301 300 300 301 302 302 301 301 301 301 300 300 300 301 300 302 305 305 303 304 304 304 304 304 303 303 303 304 305 306 306 305 307 308 307 308 308 307 308 309 308 309 310 309 310 310 311 310 308 310 312 312 313 312 312 318 316 312 316 317 315 315 316 326 334 329 329 337 339 337 337 337 337 338 337 335 334 334 333 333 333 333
301 302 302 301 302 302 301 300 300 301 302 302 301 301 301 301 300 300 301 300 301 304 305 304 304 304 305 304 304 305 304 304 304 303 304 306 306 306 307 309 308 308 308 307 308 309 309 309 309 310 310 310 310 311 310 310 311 312 313 314 313 314 313 311 314 315 315 318 320 324 331 332 329 334 338 336 336 336 335 336 336 335 334 334 333 333 332 332
301 302 302 302 302 301 300 300 300 300 302 302 301 300 300 302 303 302 302 300 301 305 305 305 305 305 304 304 305 306 304 304 304 304 304 305 307 307 306 308 308 307 308 309 308 309 310 309 309 309 310 310 310 310 310 310 310 311 311 313 313 313 314 313 314 316 317 319 320 321 329 334 329 328 333 335 336 335 334 335 336 335 335 334 333 333 332 332
302 302 302 302 301 300 299 299 300 301 302 301 301 301 300 302 303 302 302 301 302 305 306 305 306 305 304 305 306 306 305 304 304 303 304 305 307 308 307 308 307 307 311 311 309 309 311 312 311 310 309 310 310 310 310 311 311 310 311 312 314 316 316 315 316 317 317 319 319 321 329 333 327 328 331 332 334 335 334 335 336 335 334 333 333 333 333 332
303 303 303 302 300 300 299 299 301 302 301 301 301 301 300 302 303 301 302 304 305 306 305 305 305 304 305 306 306 305 305 305 304 303 304 304 306 308 307 307 307 306 309 311 310 309 310 312 312 310 309 309 310 310 310 312 311 310 311 311 312 316 318 317 319 322 323 323 322 325 331 332 329 334 333 330 333 336 335 335 336 335 334 333 333 333 332 333
303 303 303 303 302 301 301 300 301 302 302 301 301 301 301 302 304 303 303 305 305 305 305 305 305 305 306 308 308 306 305 306 305 304 304 304 305 307 306 307 307 306 308 312 314 311 310 313 314 310 309 310 310 311 310 311 313 311 310 311 311 313 317 317 316 321 324 321 322 330 337 338 337 338 337 334 336 338 337 336 334 334 334 333 333 333 332 333
304 303 303 304 303 302 302 301 301 302 302 301 301 302 302 302 303 303 303 305 305 304 305 306 305 305 306 309 309 307 305 305 305 304 306 305 305 306 306 306 307 306 307 310 313 314 313 316 316 310 309 310 309 310 310 310 313 312 309 311 312 312 319 324 319 320 323 321 323 332 340 344 339 336 338 338 338 339 338 336 334 334 334 333 332 333 332 333
303 303 303 305 304 303 303 302 301 302 302 301 301 302 303 303 303 303 304 305 305 304 305 306 306 305 306 308 309 308 305 306 305 304 306 306 306 307 306 306 307 307 307 306 308 313 313 313 316 312 309 310 308 309 311 309 310 312 310 310 314 314 316 321 321 321 322 321 324 329 335 340 338 336 338 338 337 338 337 336 335 334 333 333 333 332 333 333
303 303 304 305 304 304 304 302 302 302 301 301 301 302 303 303 303 303 303 305 305 304 305 305 305 306 306 307 308 307 306 306 305 304 305 306 307 308 306 306 307 306 307 306 307 313 314 312 315 313 309 310 310 309 311 310 309 310 310 310 316 318 314 314 319 321 321 323 327 328 332 338 339 337 338 338 337 337 336 336 336 334 333 333 332 333 333 334
303 303 304 304 304 304 304 302 302 302 302 302 302 302 303 302 303 303 304 305 304 304 306 305 305 306 306 306 306 306 307 307 306 305 306 306 307 308 306 306 308 306 307 306 307 311 312 312 317 317 311 309 310 310 310 310 309 309 311 312 312 313 313 314 318 319 320 326 330 332 335 340 341 337 335 336 336 335 335 336 335 334 333 333 333 333 334 334
303 303 304 304 304 304 304 303 302 302 302 303 303 302 303 303 303 304 304 305 304 304 305 305 305 306 306 306 306 306 307 309 307 305 306 306 306 308 307 306 307 307 307 307 308 310 312 314 320 320 311 308 310 311 310 310 310 310 312 314 313 313 316 314 314 317 321 325 329 333 336 339 340 336 334 335 335 334 335 334 334 334 333 333 333 333 334 335
303 304 304 304 304 304 304 303 303 303 303 304 303 303 304 304 304 304 305 306 305 305 305 305 305 305 305 306 306 305 306 309 309 307 307 306 306 308 308 307 307 307 308 309 308 311 314 315 317 316 312 310 311 310 311 311 312 311 312 313 314 318 318 315 318 322 319 318 323 327 329 336 341 335 333 335 334 333 333 333 333 333 332 332 332 333 334 334
303 304 304 304 304 304 303 303 304 303 304 304 304 304 305 305 305 305 306 306 306 306 305 306 306 306 306 305 305 305 306 309 311 310 310 308 306 306 306 307 307 307 309 310 309 311 314 314 313 316 316 312 310 311 310 311 311 311 313 313 314 318 320 321 329 329 320 317 321 319 320 336 344 334 332 334 332 332 332 332 332 331 332 332 332 334 335 334
303 304 304 304 304 304 303 303 304 304 304 304 304 304 305 305 305 305 305 305 306 307 306 307 306 306 306 305 305 306 307 310 312 311 310 309 308 306 306 306 307 308 309 311 312 312 314 316 314 315 315 311 311 312 309 310 312 314 317 315 313 319 320 321 326 323 318 320 324 320 321 334 339 332 333 336 334 335 333 331 332 331 331 332 332 334 335 334
304 304 304 303 304 304 303 303 303 304 304 304 304 304 304 304 304 305 305 305 305 306 307 308 307 306 306 305 306 307 307 309 311 312 311 310 309 307 305 305 307 308 308 311 314 312 316 321 318 316 318 315 313 314 312 312 312 315 319 315 313 317 317 320 323 319 317 321 321 323 328 334 336 331 335 339 337 336 333 331 332 331 331 332 333 334 334 334
304 305 304 303 303 303 303 303 301 302 303 303 303 304 304 304 304 304 305 305 305 305 307 307 306 307 307 307 308 310 310 310 310 312 313 312 311 309 305 306 307 307 308 312 315 315 318 323 322 322 323 317 315 318 319 315 312 313 316 313 315 319 319 322 324 321 323 323 322 329 335 336 337 334 335 338 337 336 335 331 331 331 331 332 333 334 334 333
304 305 305 304 303 303 302 302 301 301 302 303 304 304 304 304 305 305 305 306 306 306 307 307 306 307 308 308 310 311 312 312 310 312 312 311 312 309 305 306 307 307 310 312 313 316 317 320 323 324 321 315 317 322 319 314 314 316 314 314 318 323 322 320 323 327 327 321 323 334 338 337 338 336 334 336 336 335 334 331 331 331 331 332 333 334 334 333
304 305 304 303 304 304 303 303 301 301 302 302 303 303 304 304 305 305 305 306 307 307 308 309 308 307 308 308 309 310 313 314 312 313 313 312 314 312 307 306 307 308 312 312 314 320 319 319 322 321 318 316 317 320 316 313 315 317 316 316 319 323 321 317 326 336 328 319 327 335 335 339 340 335 331 333 334 333 333 331 331 332 332 333 333 333 333 332
303 303 302 302 302 302 303 303 302 302 302 302 303 303 304 305 305 305 305 306 308 309 309 310 312 310 308 308 308 310 313 314 314 316 316 314 315 314 311 311 311 311 313 313 315 318 320 324 325 319 318 319 318 319 317 313 313 314 315 318 320 325 324 321 329 334 325 324 337 340 338 343 340 332 329 330 330 331 331 331 332 332 332 333 333 333 332 332
300 300 301 301 301 302 303 303 303 303 303 304 305 304 304 305 305 306 305 306 310 312 310 310 312 311 310 309 309 311 313 313 314 316 316 316 318 316 313 317 317 312 312 313 313 314 317 325 328 326 323 320 320 324 324 318 316 313 312 315 319 322 322 318 323 327 323 326 336 339 340 341 335 330 329 327 327 330 331 331 332 332 333 333 332 332 332 332
300 300 300 300 301 303 305 305 304 304 305 306 306 306 306 306 306 307 308 307 308 311 311 311 313 312 312 313 313 313 313 312 313 316 315 315 318 317 313 315 315 313 312 313 313 315 318 322 327 332 330 320 321 327 327 324 321 315 313 316 318 320 321 319 322 326 325 329 335 335 336 337 334 332 330 328 328 331 330 330 331 331 332 333 333 332 332 332
299 300 300 300 301 304 306 306 306 306 308 308 308 308 308 309 308 308 310 310 308 308 310 311 311 311 313 315 315 314 313 312 314 315 314 314 315 314 313 311 312 313 313 315 316 317 324 327 324 328 330 322 323 331 330 324 319 317 324 328 321 320 323 321 320 323 326 333 340 338 334 334 333 332 334 332 331 331 330 330 331 331 332 332 332 332 332 332
Wind_Speed
12 12 13 14 14 13 13 13 14 14 14 14 14 14 14 13 13 14 15 15 15 15 15 17 17 17 17 18 19 19 21 22 22 22 23 23 19 19 20 18 15 18 18 17 18 19 20 21 20 18 18 16 14 14 16 15 12 8 3 3 4 4 5 5 7 7 4 4 7 12 15 5 8 13 5 4 2 9 12 5 5 7 2 7 18 30 38 36
13 13 12 13 14 13 13 13 14 14 15 14 14 15 14 14 14 14 15 15 16 16 16 16 16 16 16 17 17 18 20 21 22 22 18 17 19 20 21 20 16 19 21 18 18 18 18 19 20 18 17 14 11 11 13 13 14 9 3 4 6 5 7 8 10 8 6 8 10 15 17 6 7 10 3 3 1 8 7 5 9 14 17 21 29 36 37 36
14 14 14 13 13 13 13 13 14 15 15 15 15 15 15 14 13 14 15 15 15 16 16 16 16 16 15 16 16 16 18 20 21 18 14 14 16 17 19 20 18 21 23 20 18 18 16 17 19 18 16 12 11 12 11 12 13 9 5 4 6 6 7 11 13 12 15 16 11 14 16 10 12 10 2 3 2 5 6 5 11 21 28 31 35 37 36 36
14 15 15 14 14 14 13 13 14 15 15 15 16 16 15 14 13 13 14 15 15 15 16 16 16 15 14 14 14 14 16 18 16 12 12 13 12 13 18 20 19 22 25 23 20 19 16 16 17 16 14 9 10 11 9 13 11 7 8 5 6 9 7 13 18 19 22 20 14 12 12 13 17 14 6 4 3 5 7 3 12 27 33 35 38 37 37 37
15 15 15 15 14 13 13 14 14 15 15 15 15 16 15 14 13 13 14 15 15 15 16 16 17 15 14 13 12 12 11 9 5 12 11 10 12 12 16 20 22 24 25 25 22 20 18 17 16 14 11 6 8 8 7 16 14 4 9 9 9 11 6 13 23 23 24 23 16 10 10 15 18 17 12 10 6 5 5 5 18 33 37 39 40 38 37 36
15 15 16 16 15 14 14 14 15 15 15 15 15 15 15 14 13 13 14 14 15 15 15 15 16 15 14 12 12 10 6 3 7 13 9 8 9 10 13 18 23 24 26 25 23 21 18 17 15 13 9 4 7 7 6 18 17 4 7 10 12 14 8 12 21 23 26 22 14 12 14 16 15 15 12 9 4 2 5 9 22 33 37 40 40 39 37 37
14 15 16 17 16 14 14 14 14 14 15 14 14 14 15 14 13 13 13 14 15 15 15 14 15 15 13 12 11 8 11 13 9 12 7 6 6 5 9 15 22 26 27 26 25 22 18 17 17 13 8 3 7 8 6 12 16 9 4 5 11 16 13 15 19 20 23 21 19 19 15 14 13 9 3 3 5 7 11 16 29 35 38 40 39 39 38 38
14 15 16 18 17 15 14 14 14 14 14 14 13 13 15 15 14 14 13 13 14 14 14 13 14 15 12 11 10 7 16 17 10 9 4 4 5 5 6 12 19 26 28 26 26 24 20 18 19 15 7 5 4 6 9 7 9 10 7 3 6 13 16 21 23 22 22 18 19 17 11 15 14 2 5 8 11 15 20 26 35 38 39 39 40 40 39 39
15 16 16 17 18 16 14 14 14 14 14 14 13 13 14 15 15 15 13 13 13 13 13 12 14 14 10 9 8 8 18 17 11 14 10 3 2 5 5 8 16 23 25 25 25 24 21 17 19 16 5 7 6 3 8 8 6 7 9 8 6 10 14 19 22 25 25 17 15 10 8 19 15 4 5 10 19 21 28 33 36 39 39 39 39 39 39 40
14 16 16 17 17 17 15 15 15 15 15 15 15 14 15 15 16 16 14 13 12 12 12 11 13 13 10 7 5 6 14 12 11 17 14 8 5 2 3 6 13 19 21 23 24 24 22 16 17 17 4 6 9 5 8 10 6 5 10 14 14 14 15 16 16 23 23 17 18 11 9 22 15 5 2 12 23 25 31 35 36 39 39 38 37 36 35 35
14 15 16 16 17 17 16 15 15 16 16 16 16 16 16 16 17 16 15 13 12 11 11 11 12 13 12 8 8 11 10 6 6 11 14 15 13 8 5 6 8 14 19 22 23 24 23 16 13 14 6 4 7 5 7 8 8 10 11 11 13 16 18 18 14 19 15 9 18 16 12 18 7 4 7 18 24 25 32 34 35 37 38 38 36 34 31 29
14 14 16 17 17 18 18 17 16 16 17 17 17 17 17 17 17 17 15 14 12 10 11 11 11 13 12 12 20 19 11 8 8 10 14 16 16 14 8 7 5 9 14 18 22 21 22 19 14 13 8 3 3 2 4 6 6 10 10 5 7 8 12 18 16 19 11 6 17 16 10 11 1 2 12 25 23 23 30 32 33 34 36 36 34 33 28 27
14 14 16 18 18 18 19 19 18 18 18 16 16 16 16 17 17 17 15 14 12 10 11 11 12 14 12 16 27 22 17 17 16 18 17 15 18 17 12 9 7 7 8 12 17 18 20 21 18 17 11 3 2 2 5 7 5 5 5 4 4 3 7 14 16 16 11 10 17 12 4 8 3 3 15 25 23 24 26 26 30 32 34 34 33 31 27 29
15 15 17 18 18 19 20 20 21 20 18 16 16 16 16 16 17 16 15 14 12 10 10 10 12 14 13 21 26 21 22 20 18 20 16 14 19 19 14 10 9 9 7 7 11 14 16 18 19 20 16 11 7 6 7 6 3 1 3 4 4 5 5 8 10 10 8 13 19 13 4 8 4 4 16 24 24 27 24 22 26 29 31 32 31 30 28 30
15 16 17 18 18 19 20 21 22 19 16 16 15 15 15 16 16 16 15 13 11 9 9 10 11 12 15 24 26 16 12 11 11 13 11 14 21 22 16 12 11 11 8 8 9 10 12 13 17 17 12 12 9 5 5 3 2 1 4 4 5 6 4 5 7 11 10 10 16 14 4 4 3 5 15 21 23 25 23 21 24 27 28 29 29 28 28 30
16 16 17 18 19 19 19 21 21 18 16 15 15 14 14 14 16 16 15 13 10 8 9 9 8 7 9 14 14 8 5 5 7 7 6 9 18 22 18 14 14 13 9 9 10 9 10 12 16 16 8 5 6 2 3 3 4 2 5 6 6 7 4 4 5 10 14 8 9 11 5 2 2 8 15 18 22 23 22 21 22 26 27 27 27 27 28 31
16 17 17 18 19 19 19 20 20 19 16 16 15 13 12 12 14 14 13 11 9 8 10 10 6 6 11 11 10 9 5 7 10 10 7 6 12 19 19 17 14 14 12 11 12 11 12 14 13 10 8 5 3 5 2 5 6 4 5 4 4 5 6 5 6 5 13 10 7 7 5 3 3 11 17 17 21 23 22 22 22 25 25 26 27 27 30 32
17 17 18 19 19 20 19 19 19 19 17 17 16 15 13 10 11 13 11 10 9 8 9 11 5 3 10 13 13 13 9 12 17 15 9 6 9 15 17 17 14 12 11 9 12 13 12 14 11 4 4 5 3 7 9 9 9 7 5 4 2 3 6 8 6 4 10 10 9 6 4 2 2 10 13 15 21 21 20 23 22 23 25 27 27 27 28 30
18 18 19 20 20 20 19 19 18 17 17 18 17 16 12 8 9 7 5 6 7 5 5 8 10 4 8 14 17 17 18 20 21 17 9 4 7 12 14 16 14 11 6 4 9 13 12 8 8 5 6 12 13 13 11 4 5 7 5 5 5 4 5 8 8 6 9 9 8 8 5 4 7 9 9 14 20 17 16 19 20 21 23 26 26 25 25 27
19 20 20 20 19 19 19 18 17 16 16 16 17 14 8 7 5 2 4 11 14 13 13 14 15 16 19 25 26 22 22 21 18 16 9 3 5 10 14 15 11 7 4 3 5 11 12 5 6 12 14 17 16 12 9 2 2 5 4 4 7 6 4 5 7 6 8 8 6 6 7 8 11 9 6 13 16 13 15 18 20 22 23 26 26 23 24 26
21 20 18 18 18 19 19 17 16 14 12 12 15 12 8 7 4 4 12 17 18 18 21 22 20 23 28 31 30 23 20 17 14 13 10 5 7 9 13 13 7 4 5 4 3 6 10 7 12 16 12 11 9 7 7 7 4 3 3 3 4 5 5 6 6 5 5 6 1 3 8 8 9 6 4 10 11 10 16 20 22 25 24 26 26 24 25 27
18 17 16 17 17 19 19 15 14 12 9 9 11 10 7 5 3 7 11 14 19 20 21 25 23 26 31 33 32 23 14 12 13 15 11 6 11 12 12 12 6 4 5 3 2 4 7 11 13 10 5 6 7 7 9 8 8 3 3 4 2 3 3 5 4 2 1 3 1 4 9 6 5 4 4 7 7 8 14 17 20 25 25 26 28 27 28 27
18 16 17 17 16 18 17 14 14 11 7 9 10 8 6 4 2 7 9 11 18 20 20 24 24 27 31 32 29 20 12 10 13 17 12 6 14 16 12 10 6 5 6 6 7 7 7 9 7 8 7 9 7 7 10 8 7 5 4 5 2 4 2 3 3 4 6 3 5 7 7 4 3 4 3 5 6 6 10 11 13 20 25 28 31 31 32 33
19 18 19 18 17 17 15 14 13 8 8 10 8 5 6 5 4 7 7 8 11 14 17 18 19 25 30 27 20 15 16 15 13 15 11 7 15 17 10 10 8 5 8 10 9 8 5 4 8 11 8 10 8 6 9 7 6 6 5 6 3 4 2 3 3 3 5 5 6 9 5 1 3 4 3 4 6 7 9 9 11 17 21 24 26 28 32 35
19 19 19 18 17 16 15 14 10 7 9 9 4 4 5 6 7 7 6 5 6 8 10 9 9 16 20 18 12 12 12 14 19 18 10 7 11 11 7 10 9 7 11 10 7 7 6 4 10 14 9 10 9 7 9 8 5 5 5 7 7 5 3 2 4 4 5 3 1 5 3 2 3 5 5 5 6 8 9 11 13 17 18 20 22 25 28 30
19 18 18 18 17 16 15 12 8 9 9 5 4 4 5 6 6 5 3 2 4 4 3 3 4 4 6 8 13 11 5 10 21 23 16 10 8 6 5 8 8 8 9 6 3 4 4 7 6 11 12 11 10 9 9 9 6 4 5 9 9 6 3 2 5 4 3 3 4 3 3 3 3 6 6 7 7 8 9 11 14 17 18 20 23 26 29 29
19 18 18 18 16 15 14 11 9 10 8 4 5 5 4 4 3 3 0 1 4 2 0 2 3 5 9 5 14 11 2 5 12 19 21 15 9 6 4 5 5 6 6 5 4 4 6 9 7 7 12 11 11 11 9 10 7 3 6 11 10 7 5 4 4 3 2 3 2 1 3 2 3 6 7 9 9 8 9 11 13 17 20 22 25 28 30 31
19 18 18 18 17 13 13 13 11 8 6 4 5 3 3 3 3 2 3 1 2 0 1 3 2 6 11 5 18 16 4 2 3 12 22 17 12 7 3 4 5 4 7 8 6 3 7 11 9 7 10 10 11 10 9 10 6 4 7 11 10 8 7 6 4 3 1 4 1 4 3 3 3 4 7 9 9 10 13 15 14 17 22 25 27 29 30 31
19 19 19 18 17 14 12 15 11 6 5 3 4 3 1 1 3 1 4 0 2 2 4 3 1 8 9 4 15 14 8 4 2 6 18 18 14 9 2 3 4 4 7 9 6 2 6 14 12 7 8 9 9 7 8 10 6 4 6 8 6 5 5 5 5 3 1 2 5 7 5 3 3 3 7 9 9 11 14 13 13 18 25 27 28 30 30 30
21 21 20 19 19 15 13 14 9 5 4 3 3 1 2 3 2 2 2 1 2 3 4 3 2 6 6 4 4 9 8 6 5 1 12 14 13 12 5 2 3 3 2 4 6 6 4 13 15 8 8 6 6 6 8 11 8 4 6 5 4 3 1 2 2 2 2 3 7 9 10 7 3 4 7 9 11 16 14 11 12 17 25 29 29 31 31 31
23 22 20 20 19 16 14 12 6 5 4 2 1 2 4 2 2 2 1 2 3 3 4 3 2 5 5 4 3 5 4 5 5 1 5 7 9 11 5 2 2 3 1 1 5 9 8 8 9 7 10 8 7 6 7 9 9 4 5 5 3 2 3 3 3 3 3 7 7 8 11 9 6 4 7 13 15 15 14 13 15 19 25 30 30 31 32 32
22 21 19 18 18 17 13 7 5 6 4 1 1 3 3 2 2 2 2 3 3 1 2 2 2 5 6 6 4 5 4 3 3 2 2 3 5 6 5 4 3 3 4 4 5 7 8 6 3 3 12 13 7 5 5 6 8 6 5 6 5 1 1 1 1 1 4 7 5 8 11 7 6 6 10 18 17 13 15 19 21 24 29 32 32 32 33 33
21 17 15 14 15 15 9 8 8 7 4 3 3 1 2 3 1 4 2 3 1 1 1 2 4 6 7 6 4 5 4 3 2 2 2 1 3 5 5 4 3 2 4 5 6 6 5 4 3 4 8 14 11 7 6 6 8 9 6 7 7 4 4 5 4 2 4 6 4 6 9 4 4 5 9 16 19 20 22 24 24 27 29 32 33 33 33 32
19 12 9 9 10 9 6 9 11 9 5 4 3 2 3 2 2 2 2 3 2 1 2 2 5 8 6 4 4 3 3 2 1 3 3 2 3 4 5 7 7 2 3 4 5 6 5 3 6 7 5 12 14 9 7 6 7 8 5 6 6 4 6 6 5 4 4 4 3 2 5 4 3 4 7 11 18 21 19 16 17 20 22 26 28 29 31 31
15 9 7 7 6 5 7 10 12 10 8 6 3 3 1 2 3 1 2 3 1 2 3 5 6 6 4 3 4 4 4 3 3 3 3 4 4 4 5 7 9 5 3 5 3 4 6 5 6 7 6 10 12 8 7 8 6 5 5 6 5 6 5 2 3 6 4 2 1 2 3 4 4 4 7 4 12 13 12 12 15 18 21 24 25 27 30 30
13 6 5 6 4 6 8 11 13 11 10 8 4 1 3 3 3 3 1 1 1 2 5 7 4 2 3 2 3 4 5 3 4 3 2 4 4 5 5 4 6 7 4 4 3 3 6 5 4 5 7 9 12 10 8 8 6 3 4 6 5 5 6 2 2 2 3 3 3 1 2 4 2 4 6 2 9 9 11 13 16 21 24 26 27 28 30 30
14 7 6 4 3 6 9 11 14 13 10 7 3 2 4 3 3 4 1 1 0 1 4 4 1 1 2 2 2 2 4 3 3 3 2 3 4 6 7 5 5 10 9 4 1 1 6 3 5 8 9 9 12 14 8 7 9 5 6 7 4 4 4 2 2 1 3 3 4 1 2 3 1 2 3 4 9 9 10 11 13 18 23 25 27 29 29 29
14 9 5 2 0 5 10 13 15 15 10 4 2 4 3 2 4 3 2 1 1 2 4 3 1 0 1 1 3 1 3 4 4 4 3 3 3 5 9 7 5 10 13 9 2 3 3 2 6 7 10 6 7 11 6 7 9 7 6 7 6 3 3 1 3 2 1 2 3 3 2 3 4 4 3 7 11 11 11 11 12 16 21 25 27 28 29 29
12 8 4 3 3 3 9 14 17 15 8 2 4 4 2 3 6 8 8 4 2 3 4 2 2 1 1 1 2 2 2 3 4 4 3 3 3 5 10 9 6 9 12 10 5 3 1 2 3 4 9 7 3 5 6 8 9 4 4 6 6 5 5 4 3 3 3 3 2 1 3 3 5 5 9 13 15 15 14 13 13 17 24 27 28 30 31 32
12 5 3 5 5 2 9 15 17 12 4 2 3 3 3 4 7 11 12 7 3 3 3 1 2 1 2 3 2 2 2 2 3 4 2 4 4 5 8 10 5 7 10 9 6 3 2 1 3 3 3 7 5 6 9 10 9 5 4 5 6 4 3 4 3 2 3 3 3 2 1 5 6 5 11 15 15 16 17 17 15 19 26 29 30 32 32 33
13 3 4 8 5 3 12 15 10 4 2 3 3 3 4 5 6 9 12 9 7 6 5 3 3 2 2 3 2 2 2 2 2 3 1 5 6 4 7 12 8 5 7 7 6 4 1 2 2 2 2 7 9 7 8 9 8 7 6 5 6 5 4 4 4 1 2 3 3 4 2 7 6 5 10 13 13 15 19 19 16 20 28 31 32 33 33 34
11 3 5 9 5 6 12 9 3 2 3 3 3 4 6 6 6 8 9 7 7 7 7 5 4 4 3 3 2 2 2 2 2 3 2 5 7 6 7 17 17 9 6 6 6 4 4 1 0 2 4 6 6 3 6 10 8 6 6 5 4 4 5 6 5 3 1 2 2 4 2 6 6 5 8 11 11 15 21 22 17 20 28 30 31 32 33 33
10 7 8 9 3 9 8 3 2 2 4 4 5 7 9 7 5 7 6 4 5 5 4 4 5 5 4 4 4 3 3 3 3 3 3 3 7 11 12 20 22 12 4 5 4 3 3 1 2 4 4 1 1 3 4 9 8 4 4 4 5 5 5 6 5 4 4 4 3 3 2 5 6 4 2 5 6 9 15 18 15 18 23 27 30 32 33 33
12 9 7 5 6 11 5 1 3 2 4 5 6 8 10 8 7 9 5 3 4 3 1 3 4 5 4 4 4 4 2 2 3 4 4 2 5 13 17 21 21 11 6 6 5 6 6 2 1 2 2 3 3 2 3 5 6 5 4 4 6 6 7 5 2 3 4 5 6 6 4 6 5 3 2 5 6 5 7 13 15 18 23 27 30 31 33 34
11 6 3 1 6 12 7 3 2 2 4 5 7 8 9 7 7 10 9 6 6 5 3 4 4 3 4 4 4 5 4 4 3 3 3 2 4 7 15 21 20 13 13 11 7 9 7 2 3 3 2 4 6 5 4 4 5 5 5 7 8 6 8 5 3 4 4 3 5 6 5 6 6 3 5 6 7 7 7 12 17 20 25 29 31 32 33 34
6 2 1 1 4 9 10 8 4 2 3 4 5 6 5 4 5 9 10 7 8 9 5 5 6 5 4 4 3 4 4 5 5 4 4 3 4 3 12 23 21 17 19 18 7 6 3 1 3 6 6 7 7 6 4 3 5 5 5 8 6 4 6 6 4 5 5 4 4 5 6 5 6 2 6 7 8 9 8 12 17 21 25 28 30 31 32 34
4 3 3 3 3 4 7 8 5 2 3 3 2 3 4 5 5 6 5 4 5 6 5 5 6 4 3 3 1 2 3 2 5 5 6 5 5 5 11 22 19 17 19 17 11 3 2 3 4 6 7 8 8 6 4 5 6 6 7 8 6 6 8 7 4 6 6 6 4 7 5 7 7 7 9 9 10 10 9 13 20 25 28 30 30 30 30 32
4 4 5 6 3 1 2 6 6 4 5 5 2 3 5 6 6 4 3 4 4 4 3 3 4 6 7 4 0 2 4 3 2 4 4 4 4 5 3 9 9 15 17 10 7 4 2 3 5 3 3 5 5 5 5 6 6 6 9 9 7 8 9 8 7 7 7 8 6 7 8 9 9 9 12 13 14 15 15 17 21 25 28 29 30 30 30 32
5 5 6 7 5 5 8 11 9 5 5 5 3 3 4 5 5 4 3 3 5 3 4 2 4 7 7 5 2 1 2 3 4 4 2 3 5 4 1 3 2 9 12 6 4 4 2 3 4 1 0 1 2 4 3 7 6 5 8 9 9 10 10 8 6 5 6 6 5 7 10 10 9 8 9 10 12 16 18 20 22 26 29 30 31 31 31 33
8 7 9 11 9 10 13 11 6 3 3 4 3 4 4 4 5 4 3 3 3 3 2 4 7 7 5 5 5 3 3 5 7 6 2 2 4 3 1 1 2 5 6 5 4 2 2 3 4 2 2 2 3 2 2 5 7 5 3 4 7 8 6 4 3 3 3 1 1 7 8 8 7 3 4 5 11 17 18 20 24 27 31 32 31 32 33 34
9 10 11 11 7 6 8 7 3 2 2 2 3 3 3 5 6 4 3 8 10 5 4 5 6 5 4 5 5 5 7 11 12 12 10 6 6 5 2 2 3 6 5 5 3 1 2 2 3 4 4 3 4 4 4 4 8 5 0 2 6 7 4 4 4 4 6 4 4 7 5 7 6 3 8 10 14 16 16 20 24 26 31 34 33 34 35 36
13 14 11 7 5 4 5 6 3 2 2 2 3 4 4 7 8 5 4 7 14 15 13 9 5 3 4 7 7 7 10 15 18 20 20 17 16 13 11 9 5 8 7 3 1 1 3 2 1 3 3 4 6 4 4 5 7 1 4 6 8 5 3 3 1 3 6 7 7 5 6 6 4 6 8 9 10 11 15 23 28 29 33 36 36 37 39 40
Wind_Direction
332 329 330 329 328 327 324 322 320 317 314 310 305 300 299 299 299 304 309 313 315 314 307 300 298 295 290 286 288 292 292 289 282 276 276 271 260 252 247 242 225 213 219 214 210 215 215 218 218 215 211 205 211 209 202 201 186 177 149 165 202 185 196 190 192 202 182 250 271 269 273 259 287 303 312 326 8 141 150 140 147 170 167 144 156 159 163 165
338 334 333 330 328 326 325 324 322 320 320 318 314 309 304 300 298 302 306 307 311 315 313 306 303 300 294 290 290 295 297 293 289 282 278 270 255 245 238 236 223 211 215 210 206 212 212 213 213 212 208 201 205 201 196 197 191 185 135 179 211 186 197 200 198 206 196 237 257 261 270 271 285 304 276 254 185 155 157 131 122 112 111 129 145 154 159 163
340 338 336 332 329 329 328 325 323 320 320 319 315 314 311 306 303 304 306 306 307 312 313 312 311 305 298 293 291 298 302 300 295 279 261 253 246 239 232 229 218 211 214 207 203 210 209 207 208 206 200 199 199 193 190 189 194 201 178 196 222 197 211 217 211 216 221 234 250 261 273 281 285 307 303 217 194 204 198 144 120 113 118 130 142 152 158 163
337 338 338 336 332 329 328 324 322 319 318 317 314 316 315 313 309 306 307 305 305 308 311 314 313 310 303 294 291 298 311 314 296 250 227 231 228 224 224 222 211 207 210 206 203 206 204 201 203 198 191 200 201 197 198 187 185 196 195 202 205 190 209 225 220 224 229 233 242 260 282 285 283 300 299 189 143 259 238 175 135 132 134 141 148 157 162 165
336 337 338 337 332 326 324 322 321 319 318 318 318 318 316 315 309 305 304 303 305 305 307 313 314 312 305 295 290 295 316 333 258 197 197 211 212 213 215 216 207 202 206 205 204 204 200 196 193 189 185 192 192 197 220 201 186 185 214 213 195 183 195 225 222 225 232 236 245 261 271 276 283 296 280 206 181 249 226 166 149 148 150 152 155 158 161 162
338 337 336 336 333 327 325 323 320 319 321 320 319 318 318 316 308 305 304 305 304 302 306 313 316 311 306 300 291 289 289 279 166 164 174 184 194 203 205 213 205 198 202 203 203 205 202 194 187 186 181 178 196 201 219 204 199 220 232 214 202 195 197 224 225 228 233 237 240 246 257 272 288 293 268 211 186 198 192 172 154 151 152 153 155 157 158 158
340 338 334 335 334 329 325 324 321 322 324 321 319 319 318 315 309 303 303 306 302 303 307 308 316 311 307 303 290 283 263 251 187 155 163 155 160 176 188 202 198 195 198 200 202 203 202 196 191 186 170 178 214 216 222 208 211 229 241 214 208 208 212 224 230 233 234 237 239 244 257 269 274 277 252 130 112 149 168 161 151 147 150 152 155 158 159 158
339 339 335 333 334 331 325 325 325 325 324 321 320 318 315 311 306 300 298 303 302 305 304 305 316 311 310 309 306 299 265 250 195 180 202 143 128 106 138 172 184 193 198 200 202 202 204 201 195 187 175 202 198 203 216 221 232 231 228 231 213 217 223 229 236 241 240 240 243 248 254 258 256 218 102 111 129 151 154 150 150 150 152 155 158 159 161 162
338 339 336 333 334 334 327 326 325 324 323 322 320 313 310 307 304 300 292 294 302 305 302 306 313 309 311 308 321 303 264 252 227 233 242 214 129 88 103 148 169 189 201 206 204 203 206 206 198 187 178 214 199 198 197 197 239 227 212 226 236 232 232 234 238 243 245 242 240 250 264 264 257 135 93 132 141 146 149 149 153 154 155 157 159 161 165 165
335 335 335 335 336 335 328 325 324 325 324 322 319 312 308 305 303 302 294 291 297 302 300 301 305 309 307 292 306 284 260 261 251 240 235 236 232 160 120 147 167 184 201 210 210 208 207 209 204 194 200 226 213 232 197 193 243 240 200 216 237 244 247 247 245 248 250 246 240 237 251 264 252 175 132 146 147 146 148 148 153 157 158 160 161 163 165 167
332 332 335 336 336 334 330 325 323 322 321 319 317 313 311 308 305 303 300 295 292 296 294 292 300 302 301 285 253 248 253 260 247 235 234 239 240 227 186 161 178 191 200 212 215 216 213 210 199 196 221 240 214 241 228 224 263 260 221 215 238 242 251 253 250 254 252 244 238 223 233 259 252 150 163 155 153 151 150 148 153 158 158 162 164 164 166 171
334 335 336 336 333 332 330 326 322 319 319 317 314 312 310 308 306 305 304 299 291 292 287 287 294 290 298 281 249 245 259 263 253 250 238 238 242 238 219 189 193 201 206 217 216 217 219 213 193 193 214 232 207 224 262 272 284 261 234 223 249 241 252 245 240 248 233 230 238 215 232 262 279 109 157 156 158 154 152 149 154 158 159 164 166 168 170 175
339 337 334 333 330 330 330 327 322 319 319 316 312 309 308 307 307 307 305 296 288 288 285 288 288 286 295 272 256 261 284 280 267 261 248 246 248 237 225 208 198 198 211 227 217 210 216 215 207 210 221 234 218 229 298 309 312 271 219 194 246 253 258 238 231 233 210 228 231 192 217 259 251 225 160 157 161 153 150 149 154 159 161 166 168 172 174 175
339 334 330 329 328 328 329 328 322 318 316 314 312 309 308 309 307 305 300 292 289 287 283 283 283 286 280 268 273 287 292 283 267 261 255 251 244 227 215 207 197 192 196 218 215 207 212 217 217 222 236 244 260 302 321 325 315 234 175 167 207 221 247 234 214 194 188 231 216 179 219 250 253 218 165 160 161 155 151 150 155 160 165 170 173 177 179 180
332 328 328 326 327 327 327 329 325 319 315 315 316 312 309 307 304 301 294 290 289 285 282 279 278 284 277 277 288 296 287 282 271 268 265 246 235 221 209 206 203 196 198 208 202 201 206 212 212 215 236 243 245 294 334 341 327 174 180 199 208 209 245 265 222 177 183 227 198 179 222 249 254 207 169 161 162 158 152 154 158 161 166 172 176 182 185 187
326 324 324 324 325 326 326 328 326 320 318 321 320 314 306 301 300 296 290 288 288 281 277 277 281 284 277 286 299 295 275 300 314 312 290 249 234 222 211 212 211 199 203 207 194 192 196 200 204 207 218 223 199 163 39 336 305 264 200 207 209 202 208 264 259 190 189 201 187 189 191 187 227 183 172 169 167 160 153 157 162 163 169 173 178 184 184 185
323 320 320 321 322 324 324 324 322 319 320 323 320 314 305 296 290 285 283 287 285 274 268 269 283 285 264 269 289 286 276 293 312 317 298 266 236 227 222 223 217 205 207 204 198 199 196 190 187 200 211 202 160 127 127 232 235 236 205 202 213 186 170 214 282 217 183 189 202 193 173 212 225 168 173 179 172 163 157 162 166 168 172 175 180 184 182 183
319 317 316 317 317 319 320 319 319 320 322 324 323 318 313 300 283 275 274 277 276 268 266 255 237 281 265 259 273 283 287 290 298 301 290 268 232 223 228 230 221 216 216 208 208 201 187 183 170 161 191 192 182 164 188 212 206 197 176 173 185 139 162 198 245 220 170 189 203 162 145 239 177 156 169 180 174 168 165 166 168 171 175 178 182 185 185 186
313 313 313 315 315 316 316 315 319 324 323 325 326 320 316 308 287 269 255 262 250 231 255 233 199 210 277 272 276 286 291 291 297 297 287 273 234 212 217 226 222 221 216 199 209 195 175 164 162 172 189 197 202 193 195 189 144 162 158 150 157 155 193 206 226 215 166 180 203 172 161 164 155 162 168 174 175 172 170 168 168 172 178 183 185 186 187 187
310 309 310 314 316 315 313 312 318 325 323 331 340 336 340 340 317 293 303 283 260 250 263 254 234 245 269 275 277 287 292 289 292 283 262 267 245 207 203 212 210 212 207 178 191 186 175 160 188 201 204 203 201 191 196 260 86 131 121 141 163 175 219 221 231 232 167 167 215 184 155 157 163 168 166 169 173 174 173 171 174 177 179 182 184 186 185 184
314 311 311 315 316 316 313 310 317 323 324 342 353 354 12 11 348 324 317 298 277 268 268 267 259 256 265 271 273 288 300 295 285 252 227 239 235 203 196 193 179 193 202 188 192 175 172 197 216 210 207 196 185 159 179 246 262 121 112 148 170 185 215 230 227 239 187 163 242 138 137 159 165 151 150 165 172 186 183 178 179 180 178 180 182 182 181 182
324 320 319 317 317 317 314 312 317 317 318 340 348 356 12 16 344 319 316 297 287 284 275 271 265 259 263 265 268 279 286 286 278 243 221 232 218 197 184 179 167 182 176 172 214 179 188 221 218 196 160 135 148 155 166 217 241 212 152 138 183 218 217 251 251 331 16 140 184 150 136 150 155 118 134 169 179 197 196 191 185 180 177 180 183 181 180 181
333 328 325 321 321 321 317 314 315 310 307 320 328 339 345 337 315 324 314 287 291 290 276 268 258 255 259 260 263 264 242 244 268 249 232 215 199 192 180 177 175 166 170 193 198 181 201 225 190 142 137 146 159 168 162 191 229 224 176 138 218 242 167 221 249 23 27 91 140 134 122 130 126 100 127 177 184 187 201 206 195 186 183 183 185 183 182 183
329 326 324 323 324 322 317 315 313 306 304 309 310 311 320 315 301 323 312 280 290 290 282 277 259 252 255 260 260 240 222 227 243 240 228 193 190 192 189 181 169 171 200 205 202 204 235 240 147 140 159 172 176 176 165 178 212 219 190 151 188 230 196 205 188 93 42 47 106 109 87 47 150 153 167 174 173 175 194 204 202 200 195 190 189 188 187 188
326 323 321 322 322 319 313 313 310 303 307 304 292 291 313 315 296 310 317 287 285 284 296 303 261 255 260 259 242 215 220 235 238 235 222 199 192 192 196 184 174 201 209 197 205 224 258 259 157 153 176 184 186 195 184 179 189 221 204 168 175 192 216 221 169 138 74 8 268 115 92 291 178 188 194 168 168 177 190 202 206 205 202 197 194 192 193 192
327 323 322 320 318 316 310 309 307 302 308 298 280 294 298 301 290 294 314 316 300 275 318 338 254 306 316 238 207 198 222 259 249 244 239 234 216 198 200 189 188 212 198 177 224 222 232 245 187 164 178 184 199 210 198 178 165 221 209 171 173 173 185 198 169 162 140 210 238 130 145 219 206 213 199 172 178 184 189 205 211 206 202 200 197 195 194 194
328 326 324 321 317 314 305 304 306 300 304 291 288 298 288 289 276 274 334 358 305 252 114 310 244 358 354 228 186 168 169 277 247 241 239 234 222 220 234 197 187 202 172 152 225 206 180 215 225 189 178 181 207 212 199 177 159 229 205 162 166 172 186 203 165 174 194 161 160 123 132 148 213 218 187 171 179 184 195 211 214 207 205 203 200 199 197 195
324 323 323 324 319 311 296 293 298 298 299 294 302 309 294 282 220 205 79 63 297 185 12 307 228 340 342 224 183 180 223 317 171 222 228 225 220 219 241 210 182 174 174 176 213 199 168 201 218 194 186 195 207 201 179 167 163 228 186 150 161 175 184 201 185 205 181 101 179 239 150 126 247 222 165 172 186 191 202 211 210 204 205 206 203 202 200 198
315 315 317 321 317 309 288 282 286 290 289 300 329 321 278 185 182 140 77 114 275 51 7 336 282 336 351 155 189 213 261 297 69 196 203 208 220 219 241 222 176 140 189 196 213 221 176 201 205 185 200 210 196 183 161 161 187 209 149 118 125 152 171 186 193 205 118 92 229 221 175 164 269 226 170 179 197 205 208 209 206 201 204 208 205 203 201 200
301 304 307 308 308 306 287 277 274 263 271 299 329 318 152 131 120 81 77 261 293 6 349 326 325 339 10 81 221 251 263 264 304 263 180 185 202 213 239 238 150 89 199 201 210 244 232 201 200 196 210 198 156 165 161 165 188 165 113 100 87 61 57 126 136 105 101 255 236 201 182 183 239 231 188 190 204 206 203 197 197 199 203 207 206 203 201 199
296 294 294 296 300 298 284 273 246 217 242 293 323 141 136 99 67 107 158 270 296 331 337 322 325 339 360 14 306 247 247 260 280 311 170 167 177 200 218 201 145 78 64 182 198 242 263 214 204 199 192 172 141 173 170 163 184 165 115 129 117 356 350 34 25 61 165 243 243 194 181 184 219 234 194 207 217 208 198 195 193 194 200 203 203 202 202 200
302 295 290 290 292 285 270 245 204 211 234 257 115 153 139 51 20 198 239 309 301 318 341 311 309 330 330 331 297 222 228 256 232 160 184 166 157 195 206 185 174 131 180 203 176 217 250 240 246 201 184 179 162 174 172 162 185 180 127 132 150 191 227 200 233 153 217 246 238 181 170 183 234 237 204 209 215 207 202 203 196 192 194 197 197 199 201 200
315 303 292 288 284 276 248 198 200 214 208 150 145 171 92 74 233 225 247 295 265 218 288 260 272 299 310 312 285 217 209 232 208 156 203 184 153 203 225 219 223 170 177 180 156 186 243 276 249 210 188 186 178 175 183 180 184 184 163 155 167 160 166 198 210 218 243 255 252 173 162 190 270 258 222 210 206 205 208 207 200 195 193 192 193 195 199 200
326 314 297 293 286 270 214 187 200 197 172 151 141 66 62 97 240 245 248 248 244 247 254 294 297 294 288 264 250 225 199 235 217 161 174 179 167 198 218 224 224 210 120 143 158 180 201 242 215 205 190 178 184 190 172 148 165 184 155 134 161 161 168 192 195 199 229 251 273 138 156 191 203 242 256 223 206 203 203 202 194 192 192 189 190 193 197 199
336 323 304 306 292 241 195 188 193 182 164 150 105 67 118 226 246 234 244 247 297 316 296 305 297 295 293 250 243 233 197 212 213 183 185 187 187 198 205 216 213 198 143 161 182 179 192 239 233 214 207 175 181 191 143 125 161 187 120 125 186 182 153 165 182 178 181 203 233 153 188 222 201 253 301 241 198 184 165 164 164 171 181 184 189 194 196 197
344 330 310 309 272 216 198 193 188 176 163 145 92 59 211 232 223 201 249 300 6 329 312 302 268 247 298 285 259 227 198 202 190 184 219 202 204 211 206 219 200 194 194 170 183 182 183 253 273 194 210 197 176 173 164 160 165 162 155 173 193 154 124 107 219 175 113 167 246 187 212 294 297 295 330 121 170 161 145 152 158 165 175 182 189 194 195 195
350 339 320 317 244 212 203 197 187 175 165 147 109 224 219 244 221 200 211 83 98 283 295 303 250 188 290 287 306 218 184 198 176 170 214 210 219 211 204 224 187 188 212 201 232 209 161 255 275 179 200 223 177 166 183 181 151 146 196 186 114 91 101 93 205 316 69 175 266 309 195 255 208 247 334 118 157 165 160 159 161 168 176 184 191 194 195 195
350 346 347 33 271 216 201 193 182 171 161 153 241 248 229 237 226 225 254 196 153 249 260 273 198 163 314 282 321 335 176 189 172 172 207 215 238 204 190 214 199 193 213 203 221 301 154 232 279 192 186 211 166 161 187 201 176 168 180 161 124 140 194 152 171 195 136 181 270 325 304 247 198 195 186 166 174 177 172 169 169 176 183 187 190 192 194 194
357 351 1 22 340 243 196 184 175 165 156 175 237 243 234 251 258 266 267 240 179 248 260 252 210 248 328 270 302 319 238 207 171 173 194 190 230 216 185 193 204 204 206 186 179 285 357 144 277 228 178 165 141 167 189 206 204 182 127 151 165 170 182 188 167 166 178 182 206 313 334 273 234 209 186 184 184 177 174 179 185 189 189 188 188 189 190 191
9 356 357 2 349 238 186 175 169 165 169 221 232 238 251 270 274 272 263 238 197 234 252 246 211 222 304 298 300 287 284 293 187 184 193 180 207 243 198 181 191 206 194 175 179 236 336 171 244 285 168 158 187 205 192 193 196 186 159 172 188 172 146 188 187 139 147 156 165 166 266 263 250 204 189 193 186 179 180 184 192 195 189 188 189 188 188 188
11 3 348 356 356 181 172 168 170 180 221 242 241 240 260 266 271 283 270 236 214 234 244 260 256 237 281 303 306 274 288 318 228 193 213 196 198 246 208 184 189 200 171 172 197 200 203 208 220 278 173 179 208 214 188 184 175 168 181 191 185 163 123 163 214 232 121 157 175 156 193 262 255 190 189 196 187 184 186 185 192 193 187 187 189 188 187 187
3 343 330 340 323 190 173 169 189 247 227 250 261 258 278 275 263 282 275 226 213 235 229 231 244 236 243 245 247 263 263 273 242 205 223 209 200 228 204 182 189 196 159 180 217 188 168 185 299 261 228 203 225 243 166 167 146 136 187 195 160 145 126 150 200 228 166 174 148 125 173 261 261 212 195 194 191 193 191 189 189 187 185 185 185 186 187 187
345 320 333 341 264 194 178 189 255 223 233 270 286 275 279 280 267 283 283 223 222 236 213 214 226 219 223 219 216 240 241 236 241 219 223 222 212 222 203 180 187 196 164 180 216 185 172 217 274 284 294 204 255 6 136 156 137 135 212 185 147 169 166 157 178 184 180 192 148 117 230 264 281 284 212 168 174 189 193 193 184 175 179 181 181 183 185 185
328 311 332 358 200 194 185 262 242 241 270 275 282 279 276 272 260 264 271 225 219 225 209 235 220 206 221 216 212 241 264 260 271 246 229 252 230 217 201 185 184 188 195 197 175 172 192 191 184 266 359 114 151 88 116 165 168 173 206 190 171 166 145 133 132 146 182 207 160 143 216 250 281 319 85 119 125 134 174 184 179 171 173 177 180 182 183 183
328 307 319 12 204 207 217 253 247 262 290 288 290 287 280 271 252 249 251 245 238 234 230 252 250 249 252 233 229 251 244 214 237 270 250 256 268 222 194 187 185 186 208 212 153 146 187 179 141 178 154 156 181 182 173 181 180 179 185 185 184 160 145 150 130 141 197 220 154 153 202 250 296 356 114 130 129 129 148 165 173 175 175 177 179 179 180 180
336 309 291 318 225 218 233 251 258 256 279 293 291 279 270 262 266 265 260 253 245 236 232 257 266 272 263 241 252 267 245 210 216 270 302 272 280 259 176 179 189 195 206 214 188 122 145 211 167 174 181 184 190 211 224 161 149 177 174 162 159 143 140 132 115 161 190 165 169 209 197 215 275 255 153 161 156 155 159 160 168 175 176 178 179 178 177 179
345 326 334 338 287 237 242 247 231 198 256 286 302 291 279 278 299 301 270 248 250 235 223 240 240 241 251 239 270 287 276 258 219 240 282 263 267 279 180 175 187 196 198 213 225 187 50 291 227 186 198 206 191 200 209 152 151 175 158 147 149 141 133 130 157 198 164 131 223 252 189 183 233 220 190 182 166 165 175 175 174 173 173 176 177 176 176 177
360 321 327 341 322 234 263 266 247 235 253 259 275 287 283 286 293 295 261 275 287 239 208 247 239 234 245 241 41 293 280 318 279 244 276 272 296 320 191 160 173 190 188 201 223 186 97 281 240 200 237 231 203 212 195 150 154 168 158 158 158 151 154 161 193 206 159 152 221 227 177 192 221 211 199 190 179 180 182 177 172 169 169 172 173 174 176 177
6 328 316 330 316 265 277 282 277 280 261 236 238 257 266 280 273 256 251 304 316 257 205 268 271 242 243 229 181 234 301 345 309 272 293 308 311 329 97 98 119 183 181 185 199 163 123 261 244 195 355 260 231 249 191 135 138 165 173 172 164 164 173 174 190 203 165 167 201 176 177 215 229 205 203 202 183 169 160 158 161 164 168 171 173 176 178 179
4 339 314 316 310 277 277 284 281 292 273 233 238 246 238 254 262 266 237 214 279 302 196 220 257 255 254 232 192 185 287 293 275 257 245 334 315 312 133 153 170 158 159 179 199 156 120 242 257 97 89 310 311 344 62 122 136 156 180 163 146 149 153 153 169 175 144 157 164 145 172 235 249 186 137 135 143 142 146 158 166 169 171 172 174 178 181 183
4 349 323 310 305 283 290 304 289 276 289 229 235 247 243 255 257 277 267 214 211 229 212 213 254 279 292 274 238 204 218 232 239 244 240 235 246 254 265 251 173 145 151 186 197 158 136 224 305 59 76 298 308 34 45 86 108 115 145 133 139 145 155 178 192 180 170 158 104 111 161 239 252 135 111 129 147 152 161 168 169 172 175 176 178 181 184 188
357 354 344 317 291 286 313 322 308 304 306 245 252 266 263 269 265 268 293 240 217 224 236 239 261 318 304 280 268 257 257 256 256 260 259 250 243 246 255 260 215 148 156 190 182 165 152 126 19 74 90 282 295 11 50 87 97 124 244 190 167 174 181 176 196 195 177 152 128 147 201 222 194 140 134 146 157 165 176 177 175 177 179 181 184 185 188 191